[[{"header":{"parameterUnit":"m.s-1","parameterCategory":1,"la1":30.2991,"la2":30.254,"lo1":-89.0895,"lo2":-89.0444,"dy":0.0017,"dx":0.0017,"nx":28,"ny":28,"refTime":"2023-08-19T21:00:00:Z","depth":0,"parameterNumber":2,"parameterNumberName":"U-component_of_WINDS"},"data":[0,0,0,0,0,0,0,0,0,0,0,0,0,0,0,0,0,0,0,0,0,0,0,0,0,0,0,0,0,0,0,0,0,0,0,0,0,0,0,0,0,0,0,0,0,0,0,0,0,0,0,0,0,0,0,0,0,0,-7.7676,-7.7676,0,-7.7644,-7.7644,-7.7643,-7.7522,-7.752,-7.7517,-7.7514,-7.7483,-7.7485,-7.7486,0,0,0,0,0,0,0,0,0,0,0,0,0,-7.7636,-7.7638,-7.7676,-7.7676,-7.7675,-7.7644,-7.7644,-7.7643,-7.7523,-7.7519,-7.7516,-7.7513,-7.7482,-7.7484,-7.7486,0,0,0,0,0,0,0,0,0,0,0,0,0,-7.7634,-7.7638,-7.7676,-7.7611,-7.7605,-7.7644,-7.7644,-7.7643,-7.7524,-7.7519,-7.7515,-7.7511,-7.7482,-7.7484,-7.7487,-7.7586,0,0,-7.7495,-7.7496,0,0,0,0,0,0,0,0,-7.7634,-7.7636,-7.7621,-7.7616,-7.7609,-7.7583,-7.7618,-7.7624,-7.7525,-7.7555,-7.7514,-7.7509,-7.752,-7.7519,-7.7522,-7.7585,-7.7583,-7.7495,-7.7497,-7.7498,-7.7498,0,0,0,0,0,0,0,-7.7635,-7.7636,-7.7663,-7.7621,-7.7614,-7.7585,-7.758,-7.7619,-7.7561,-7.7552,-7.7543,-7.7541,-7.7515,-7.752,-7.752,-7.7583,-7.7495,-7.7497,-7.7499,-7.75,-7.7726,-7.7731,0,0,0,0,0,0,-7.7644,-7.7637,-7.7664,-7.7663,-7.7612,-7.7589,-7.7584,-7.7596,-7.756,-7.7551,-7.7544,-7.7535,-7.7517,-7.7517,-7.7519,-7.7632,-7.7498,-7.75,-7.7502,-7.7722,-7.7727,-7.7732,0,0,0,0,0,0,-7.7643,-7.7647,-7.7666,-7.7648,-7.7648,-7.7594,-7.7609,-7.7597,-7.7601,-7.7554,-7.7544,-7.7559,-7.7514,-7.7515,-7.757,-7.7629,-7.7501,-7.7504,-7.7717,-7.7724,-7.773,-7.786,0,0,0,0,0,0,-7.7643,-7.7648,-7.7684,-7.7649,-7.7649,-7.7717,-7.7612,-7.76,-7.7606,-7.7594,-7.7565,-7.7557,-7.7511,-7.7567,-7.7573,-7.763,-7.7506,-7.7711,-7.772,-7.7728,-7.785,-7.787,-7.7887,0,0,0,0,0,-7.7642,-7.7722,-7.7686,-7.769,-7.7693,-7.7721,-7.7721,-7.7666,-7.7611,-7.7647,-7.7618,-7.7558,-7.7623,-7.7574,-7.7579,-7.7639,-7.7707,-7.7717,-7.7727,-7.7841,-7.7866,-7.7887,0,0,0,0,0,0,-7.7764,-7.7716,-7.7676,-7.7747,-7.7739,-7.77,-7.7743,-7.7694,-7.7701,-7.7689,-7.7622,-7.7616,-7.7681,-7.7666,-7.7612,-7.7734,-7.7655,-7.7667,-7.774,-7.7763,-7.7781,-7.7782,-7.7508,0,0,0,0,0,-7.78,-7.7825,-7.7782,-7.7849,-7.7847,-7.7797,-7.7807,-7.7766,-7.7755,-7.7751,-7.7725,-7.7717,-7.7736,-7.7749,-7.7764,-7.7849,-7.7841,-7.7893,-7.7912,-7.7927,-7.7937,-7.798,-7.8003,-7.7765,-7.7765,-7.7765,0,0,-7.7872,-7.7849,-7.7869,-7.7874,-7.7862,-7.7891,-7.7795,-7.7829,-7.785,-7.7756,-7.7805,-7.7788,-7.7775,-7.7845,-7.7875,-7.7834,-7.8002,-7.794,-7.7953,-7.7953,-7.7993,-7.8016,-7.8036,-7.7772,-7.7771,-7.777,0,0,-7.8019,-7.8005,-7.8059,-7.8051,-7.8035,-7.8002,-7.8016,-7.7985,-7.7969,-7.8019,-7.7949,-7.7975,-7.8008,-7.8001,-7.8003,-7.8153,-7.8097,-7.816,-7.8256,-7.8299,-7.8318,-7.8334,-7.8386,-7.8405,-7.817,-7.8171,-7.8171,0,-7.8111,-7.8151,-7.8093,-7.8132,-7.8136,-7.8055,-7.8109,-7.8104,-7.8095,-7.81,-7.8056,-7.8097,-7.8083,-7.815,-7.8187,-7.8192,-7.8205,-7.816,-7.832,-7.8335,-7.835,-7.8398,-7.8418,-7.8178,-7.8177,-7.8177,-7.8176,0,-7.8264,-7.8294,-7.834,-7.8333,-7.8343,-7.839,-7.834,-7.8358,-7.8318,-7.829,-7.8342,-7.8323,-7.8332,-7.8347,-7.8307,-7.841,-7.8385,-7.8332,-7.825,-7.8381,-7.8425,-7.8443,-7.8189,-7.8186,-7.8184,-7.8182,0,0,-7.8481,-7.8446,-7.8463,-7.8459,-7.8439,-7.846,-7.8506,-7.8515,-7.8531,-7.8529,-7.8564,-7.8597,-7.8548,-7.855,-7.851,-7.8549,-7.8667,-7.849,-7.8489,-7.8522,-7.8778,-7.8815,-7.8838,-7.8633,-7.8636,-7.8639,-7.8778,0,-7.8619,-7.8691,-7.8643,-7.8724,-7.875,-7.8676,-7.8715,-7.8707,-7.8684,-7.8704,-7.8678,-7.8701,-7.8636,-7.8636,-7.8672,-7.8645,-7.8717,-7.8635,-7.8664,-7.8665,-7.8665,-7.8861,-7.89,-7.9032,-7.8795,-7.8798,-7.88,0,-7.8788,-7.8793,-7.8877,-7.8853,-7.8862,-7.8898,-7.8903,-7.8924,-7.8915,-7.8895,-7.8899,-7.8851,-7.8894,-7.8818,-7.8877,-7.8822,-7.8832,-7.8822,-7.8826,-7.8823,-7.8738,-7.8861,-7.9073,-7.9092,-7.8827,-7.8825,-7.8823,0,-7.8935,-7.8964,-7.9018,-7.9018,-7.8991,-7.9018,-7.9009,-7.8996,-7.9005,-7.9011,-7.9017,-7.9029,-7.9034,-7.9045,-7.9001,-7.8951,-7.9066,-7.8986,-7.905,-7.9051,-7.9073,-7.9072,-7.9287,-7.9087,-7.9086,-7.9086,-7.9086,0,-7.9091,-7.9145,-7.9084,-7.9116,-7.9175,-7.9121,-7.918,-7.9163,-7.9153,-7.9182,-7.912,-7.9148,-7.9091,-7.9114,-7.9081,-7.9134,-7.9138,-7.9123,-7.9113,-7.9126,-7.9128,-7.9128,-7.9117,-7.9091,-7.909,-7.9089,-7.9088,0,-7.9263,-7.9225,-7.9278,-7.925,-7.9245,-7.9289,-7.9265,-7.9294,-7.9269,-7.9306,-7.9312,-7.9272,-7.9296,-7.9255,-7.9274,-7.9252,-7.9325,-7.9303,-7.9328,-7.932,-7.9385,-7.9378,-7.9605,-7.9631,-7.9417,-7.9419,-7.9421,0,-7.9363,-7.9402,-7.938,-7.9395,-7.9389,-7.9414,-7.9423,-7.9374,-7.9387,-7.9381,-7.9412,-7.9431,-7.9443,-7.9486,-7.9458,-7.9473,-7.9449,-7.9528,-7.945,-7.9463,-7.9447,-7.9443,-7.9447,-7.9542,-7.9545,-7.9547,-7.9548,0,-7.9544,-7.9524,-7.954,-7.9552,-7.9565,-7.9572,-7.9573,-7.9589,-7.9537,-7.9555,-7.9579,-7.9589,-7.961,-7.9629,-7.9638,-7.9629,-7.958,-7.9574,-7.9589,-7.9601,-7.9613,-7.9605,-7.9367,-7.9568,-7.9566,-7.9564,-7.9563,-7.9562,-7.9681,-7.9713,-7.9702,-7.9723,-7.972,-7.9724,-7.975,-7.9729,-7.9748,-7.9761,-7.9731,-7.9763,-7.9756,-7.9762,-7.9759,-7.9783,-7.9749,-7.9771,-7.9776,-7.9781,-7.979,-7.9613,-7.9785,-7.9785,-7.9784,-7.9784,-7.9783,0,-7.9857,-7.9847,-7.9868,-7.9872,-7.989,-7.9845,-7.9845,-7.9862,-7.9891,-7.9888,-7.9902,-7.9931,-7.9951,-7.9927,-7.9942,-7.9967,-7.9945,-7.9972,-7.9968,-7.9966,-7.9822,-7.9806,-7.999,-7.999,-7.999,-7.999,-7.9989,-7.9989,-7.995,-8.0001,-7.9981,-8.0031,-8.0021,-8.0051,-8.0055,-8.0059,-8.0057,-8.0091,-8.0108,-8.0093,-8.0082,-8.0097,-8.0113,-8.0106,-8.0113,-8.0148,-8.0133,-7.9997,-7.9977,-7.9957,-7.9942,-8.0151,-8.0151,-8.0275,-8.0276,-8.0277]},{"header":{"parameterUnit":"m.s-1","parameterCategory":1,"la1":30.2991,"la2":30.254,"lo1":-89.0895,"lo2":-89.0444,"dy":0.0017,"dx":0.0017,"nx":28,"ny":28,"refTime":"2023-08-19T21:00:00:Z","depth":0,"parameterNumber":3,"parameterNumberName":"V-component_of_WINDS"},"data":[0,0,0,0,0,0,0,0,0,0,0,0,0,0,0,0,0,0,0,0,0,0,0,0,0,0,0,0,0,0,0,0,0,0,0,0,0,0,0,0,0,0,0,0,0,0,0,0,0,0,0,0,0,0,0,0,0,0,2.5984,2.5985,0,2.6067,2.6068,2.6069,2.6158,2.616,2.6161,2.6162,2.6241,2.6241,2.6242,0,0,0,0,0,0,0,0,0,0,0,0,0,2.5901,2.5902,2.5984,2.5985,2.5986,2.6067,2.6068,2.6069,2.6158,2.616,2.6161,2.6163,2.624,2.6241,2.6242,0,0,0,0,0,0,0,0,0,0,0,0,0,2.5956,2.5903,2.5984,2.6041,2.6047,2.6067,2.6068,2.6069,2.6158,2.616,2.6162,2.6163,2.624,2.6241,2.6243,2.6212,0,0,2.6247,2.6247,0,0,0,0,0,0,0,0,2.5952,2.5958,2.6031,2.6037,2.6043,2.6105,2.6068,2.6117,2.6157,2.6115,2.6162,2.6164,2.6193,2.6199,2.621,2.6215,2.6219,2.6247,2.6248,2.6248,2.6248,0,0,0,0,0,0,0,2.5948,2.5955,2.6017,2.6032,2.604,2.6061,2.6071,2.6077,2.6142,2.6119,2.6126,2.6135,2.6197,2.6208,2.6212,2.622,2.6247,2.6248,2.6249,2.6249,2.6208,2.6206,0,0,0,0,0,0,2.5937,2.5952,2.6014,2.6019,2.6002,2.6061,2.6072,2.6083,2.6142,2.6154,2.6133,2.6139,2.6205,2.621,2.6215,2.6185,2.6248,2.6249,2.625,2.621,2.6208,2.6206,0,0,0,0,0,0,2.5935,2.5941,2.6011,2.5988,2.5998,2.606,2.6072,2.6083,2.6095,2.6153,2.6165,2.6133,2.6207,2.6213,2.6213,2.6189,2.625,2.6251,2.6212,2.6209,2.6207,2.6123,0,0,0,0,0,0,2.5932,2.594,2.5929,2.5987,2.5999,2.6008,2.607,2.6084,2.6097,2.6106,2.6156,2.6166,2.6209,2.6211,2.6214,2.6192,2.6252,2.6214,2.6211,2.6207,2.6128,2.6118,2.6109,0,0,0,0,0,2.5929,2.59,2.5928,2.5935,2.5987,2.6006,2.6013,2.6065,2.6095,2.6085,2.6123,2.6164,2.6191,2.621,2.6215,2.6192,2.6216,2.6212,2.6208,2.6132,2.612,2.6109,0,0,0,0,0,0,2.5835,2.5909,2.594,2.593,2.5962,2.6021,2.6009,2.6049,2.6071,2.6077,2.6139,2.6149,2.6142,2.6167,2.6187,2.6167,2.621,2.6206,2.6151,2.6139,2.613,2.6123,2.6253,0,0,0,0,0,2.5814,2.5825,2.5888,2.5873,2.5888,2.5946,2.5956,2.5994,2.6028,2.6041,2.6079,2.6109,2.6125,2.6134,2.6151,2.6133,2.6146,2.612,2.611,2.6102,2.6098,2.6093,2.6083,2.6192,2.6192,2.6192,0,0,2.5769,2.5811,2.5813,2.5856,2.5884,2.5894,2.5956,2.5962,2.597,2.6041,2.6045,2.6074,2.6112,2.6103,2.6101,2.6124,2.6071,2.6097,2.609,2.609,2.6087,2.6077,2.6068,2.6189,2.6189,2.619,0,0,2.5693,2.5725,2.5718,2.5746,2.5791,2.583,2.5828,2.5883,2.5906,2.5911,2.5966,2.5975,2.6,2.6026,2.6042,2.5981,2.602,2.5984,2.5933,2.5927,2.5918,2.5911,2.589,2.5882,2.598,2.598,2.598,0,2.5631,2.5649,2.5708,2.5713,2.573,2.5799,2.5792,2.5816,2.5862,2.5873,2.5898,2.5934,2.5964,2.5964,2.5949,2.596,2.596,2.5978,2.5915,2.5908,2.5902,2.5883,2.5875,2.5976,2.5976,2.5977,2.5977,0,2.5571,2.5583,2.5571,2.5618,2.5635,2.5633,2.5692,2.5701,2.5739,2.5775,2.5781,2.582,2.5848,2.5851,2.5886,2.5856,2.5869,2.5904,2.5948,2.5887,2.587,2.5863,2.5969,2.5971,2.5972,2.5973,0,0,2.5435,2.5519,2.5513,2.5537,2.5593,2.5602,2.5605,2.5635,2.5642,2.5673,2.5677,2.5699,2.5733,2.5751,2.579,2.5785,2.5736,2.5821,2.5823,2.5804,2.5707,2.5681,2.5671,2.5763,2.5762,2.5761,2.5705,0,2.5369,2.5379,2.5435,2.5428,2.5441,2.5508,2.5511,2.5545,2.558,2.5595,2.5634,2.5649,2.5692,2.5704,2.5702,2.5742,2.5717,2.5747,2.5766,2.5766,2.5755,2.5662,2.5634,2.5579,2.5698,2.5697,2.5696,0,2.5292,2.5322,2.5317,2.5377,2.5384,2.5385,2.542,2.5433,2.5474,2.55,2.5523,2.5568,2.5575,2.5617,2.5627,2.5646,2.5658,2.5679,2.5678,2.5682,2.5727,2.5663,2.5562,2.5554,2.5686,2.5687,2.5688,0,2.5194,2.5233,2.5237,2.5255,2.5323,2.5323,2.5351,2.5395,2.5411,2.544,2.5451,2.5479,2.5495,2.5516,2.5568,2.5593,2.5573,2.5618,2.5594,2.5593,2.5586,2.5585,2.5485,2.5593,2.5593,2.5593,2.5593,0,2.5114,2.5109,2.5195,2.5197,2.5194,2.5258,2.5253,2.5287,2.5326,2.5336,2.5395,2.5402,2.5471,2.5486,2.5526,2.553,2.5536,2.5557,2.5568,2.5552,2.5549,2.556,2.5565,2.5591,2.5592,2.5592,2.5592,0,2.5004,2.5061,2.507,2.5136,2.5153,2.5148,2.5204,2.5208,2.5249,2.5261,2.5267,2.533,2.5352,2.5407,2.5441,2.5469,2.5461,2.5481,2.5448,2.5455,2.5428,2.543,2.5331,2.5322,2.5434,2.5433,2.5432,0,2.495,2.4948,2.5015,2.5028,2.5055,2.5073,2.5091,2.5154,2.517,2.5219,2.5218,2.5245,2.527,2.5301,2.5349,2.5377,2.5398,2.5362,2.5402,2.5387,2.5398,2.5398,2.5399,2.5352,2.535,2.5349,2.5348,0,2.4847,2.4876,2.4901,2.4936,2.4956,2.4986,2.5019,2.5025,2.5097,2.5112,2.5136,2.5156,2.5194,2.522,2.5256,2.5285,2.5328,2.5336,2.5332,2.5315,2.5297,2.5308,2.5424,2.5337,2.5338,2.5339,2.5339,2.534,2.4764,2.4767,2.4816,2.4842,2.4874,2.4905,2.4913,2.4957,2.4979,2.5017,2.5053,2.5074,2.5118,2.5171,2.5197,2.5214,2.5236,2.523,2.5229,2.5226,2.522,2.5294,2.522,2.5221,2.5221,2.5222,2.5222,0,2.4665,2.4701,2.4724,2.4771,2.4792,2.4834,2.4874,2.4888,2.4907,2.4945,2.497,2.4999,2.5026,2.5078,2.5109,2.5113,2.5134,2.5119,2.5119,2.5126,2.5197,2.5198,2.5102,2.5102,2.5102,2.5102,2.5102,2.5102,2.4616,2.4625,2.466,2.4686,2.4721,2.4745,2.4764,2.4793,2.4824,2.4855,2.4879,2.4914,2.4958,2.4993,2.502,2.5035,2.5043,2.5022,2.5043,2.5109,2.512,2.5131,2.5132,2.5023,2.5023,2.497,2.497,2.4969]}]]